Location: Gleizolles
(44.4833°N, 6.7667°E)
Time: 21:18:25
(UTC+00:00)

Tiros 1 despin weight - Pass Details

Date: 25 June 2024
Orbit: 576 x 620 km, 48.2° (Epoch: 19 July)

Event Time Altitude Azimuth Distance (km) Brightness Sun altitude
Rises 16:50:16 0° 288° (WNW) 2,893 ? 24.0°
Reaches altitude 10° 16:52:51 10° 277° (W) 1,980 ? 23.6°
Maximum altitude 16:56:39 27° 220° (SW) 1,197 ? 22.9°
Drops below altitude 10° 17:00:25 10° 163° (SSE) 1,953 ? 22.2°
Sets 17:02:58 0° 151° (SSE) 2,845 ? 21.8°
